CST,Max TemperatureF,Mean TemperatureF,Min TemperatureF,Max Dew PointF,MeanDew PointF,Min DewpointF,Max Humidity, Mean Humidity, Min Humidity, Max Sea Level PressureIn, Mean Sea Level PressureIn, Min Sea Level PressureIn, Max VisibilityMiles, Mean VisibilityMiles, Min VisibilityMiles, Max Wind SpeedMPH, Mean Wind SpeedMPH, Max Gust SpeedMPH,PrecipitationIn, CloudCover, Events, WindDirDegrees
2013-1-1,17,0,-16,14,-4,-22,93,81,67,30.25,30.16,30.02,10,10,7,12,3,,0.00,4,Snow,212
2013-1-2,19,16,12,18,13,10,100,92,86,30.05,29.99,29.95,10,5,1,10,5,,0.00,8,Snow,174
2013-1-3,19,14,8,19,11,3,100,85,68,30.21,30.14,30.04,10,7,2,14,7,17,0.00,4,Snow,262
2013-1-4,30,19,8,18,13,5,100,82,60,30.12,30.06,29.99,10,10,10,12,6,,0.00,0,,220
2013-1-5,23,14,5,18,11,3,100,85,68,30.09,29.95,29.84,10,10,7,9,3,,0.00,1,,191
2013-1-6,21,16,12,18,11,7,100,81,58,30.19,30.11,29.96,10,10,7,13,7,,0.00,1,,257
2013-1-7,33,24,15,25,21,12,100,77,69,30.02,29.91,29.87,10,10,2,18,13,25,0.00,0,,203
2013-1-8,33,20,6,30,21,5,100,90,75,29.98,29.88,29.76,10,8,0,17,4,24,0.00,3,Fog,168
2013-1-9,33,26,19,28,22,16,93,76,60,30.34,30.14,29.87,10,10,10,24,11,38,0.00,1,,244
2013-1-10,37,30,24,32,25,19,100,75,52,30.33,30.10,29.75,10,8,1,13,9,17,0.35,3,Rain,144
2013-1-11,37,34,32,37,35,32,100,100,100,29.75,29.53,29.36,5,2,0,15,8,18,0.04,8,Rain,157
2013-1-12,37,21,5,37,12,0,100,78,67,30.04,29.79,29.37,10,10,4,31,15,40,0.00,6,Snow,251
2013-1-13,8,6,1,3,1,-2,92,82,73,30.21,30.09,30.00,10,8,2,12,7,,0.00,5,Snow,281
2013-1-14,12,6,1,5,1,-2,92,79,62,30.37,30.31,30.21,10,10,5,10,5,,0.00,2,Snow,224
2013-1-15,28,17,6,18,12,3,92,76,55,30.27,30.11,29.83,10,10,10,16,8,23,0.00,0,,197
2013-1-16,33,22,12,32,17,-2,100,74,47,30.21,29.83,29.63,10,9,2,21,15,31,0.00,5,Snow,277
2013-1-17,15,10,5,9,1,-6,85,64,45,30.36,30.31,30.22,10,9,3,13,8,,0.00,6,Snow,287
2013-1-18,37,26,14,30,22,9,100,83,70,30.29,29.89,29.70,10,9,2,14,7,20,0.01,3,Snow,195
2013-1-19,35,19,3,30,16,-6,100,80,57,30.14,29.83,29.67,10,9,2,39,10,51,0.00,4,,282
2013-1-20,5,2,-2,0,-6,-9,78,70,56,30.35,30.26,30.14,10,10,5,20,12,24,0.00,3,,287
2013-1-21,-2,-8,-13,-11,-17,-22,71,65,55,30.29,30.25,30.21,10,10,3,20,13,25,0.00,1,,288
2013-1-22,1,-6,-14,-6,-14,-20,84,68,51,30.36,30.29,30.21,10,10,10,7,5,,0.00,1,,264
2013-1-23,14,4,-5,9,-4,-17,85,69,47,30.58,30.25,30.12,10,7,1,26,7,31,0.00,5,Snow,300
2013-1-24,10,2,-7,1,-9,-17,78,65,61,30.65,30.49,30.18,10,10,10,12,6,17,0.00,4,Snow,120
2013-1-25,19,11,3,12,6,-2,86,74,58,30.27,30.06,29.90,10,8,2,20,11,29,0.00,7,Snow,266
2013-1-26,23,10,-4,12,3,-6,92,72,58,30.34,30.25,30.13,10,10,10,12,5,,0.00,4,,140
2013-1-27,32,26,21,30,22,12,100,80,59,30.14,29.96,29.80,10,6,0,10,7,16,0.00,7,Snow,122
2013-1-28,32,30,28,32,31,28,100,100,93,29.90,29.82,29.62,7,3,0,12,2,,0.22,8,Fog,130
2013-1-29,33,30,28,32,30,23,100,95,80,29.72,29.61,29.52,10,6,1,18,8,25,0.11,8,,339
2013-1-30,28,19,10,23,12,3,93,80,67,29.70,29.63,29.60,10,9,4,21,15,25,0.00,7,Snow,329
2013-1-31,10,2,-7,3,-5,-17,85,71,61,30.21,29.94,29.70,10,8,2,23,14,26,0.00,5,Snow,296